| time (UTC) | temp C | wind direction | speed KPH | gust KPH | rain 1hr cm | rain 24hr cm | rain mn cm | humidity % | barometer mb |
| 20260505041516 | 14 | 23 | 3.2 | 6.4 | 0.20 | 0.79 | 0.79 | 89 | 1013.6 |
| 20260505040516 | 14 | 23 | 1.6 | 4.8 | 0.08 | 0.66 | 0.66 | 88 | 1013.5 |
| 20260505035516 | 14 | 23 | 1.6 | 8.0 | 0.05 | 0.61 | 0.61 | 88 | 1013.6 |
| 20260505034516 | 14 | 68 | 1.6 | 8.0 | 0.08 | 0.58 | 0.58 | 89 | 1013.9 |
| 20260505033516 | 14 | 23 | 1.6 | 6.4 | 0.08 | 0.58 | 0.58 | 90 | 1013.9 |
| 20260505032537 | 14 | 0.0 | 4.8 | 0.10 | 0.58 | 0.58 | 90 | 1014.1 | |
| 20260505031516 | 14 | 0.0 | 8.0 | 0.13 | 0.58 | 0.58 | 90 | 1014.2 | |
| 20260505030516 | 14 | 0.0 | 4.8 | 0.13 | 0.58 | 0.58 | 90 | 1014.3 | |
| 20260505025516 | 14 | 23 | 3.2 | 6.4 | 0.10 | 0.53 | 0.53 | 91 | 1014.4 |
| 20260505024516 | 14 | 23 | 1.6 | 4.8 | 0.15 | 0.51 | 0.51 | 91 | 1014.6 |
| 20260505023516 | 14 | 0 | 3.2 | 4.8 | 0.18 | 0.51 | 0.51 | 91 | 1014.7 |
| 20260505022517 | 13 | 0.0 | 3.2 | 0.20 | 0.48 | 0.48 | 92 | 1014.8 | |
| 20260505021516 | 13 | 0.0 | 0.0 | 0.23 | 0.46 | 0.46 | 92 | 1014.9 | |
| 20260505020516 | 13 | 0.0 | 6.4 | 0.28 | 0.46 | 0.46 | 91 | 1014.9 | |
| 20260505015517 | 13 | 0.0 | 0.0 | 0.30 | 0.43 | 0.43 | 91 | 1015.1 | |
| 20260505014516 | 14 | 0.0 | 3.2 | 0.28 | 0.36 | 0.36 | 91 | 1015.2 | |
| 20260505013516 | 14 | 0.0 | 3.2 | 0.30 | 0.33 | 0.33 | 90 | 1015.3 | |
| 20260505012516 | 14 | 0.0 | 1.6 | 0.28 | 0.28 | 0.28 | 89 | 1015.5 | |
| 20260505011516 | 14 | 0.0 | 4.8 | 0.23 | 0.23 | 0.23 | 88 | 1015.6 | |
| 20260505010516 | 14 | 23 | 1.6 | 4.8 | 0.18 | 0.18 | 0.18 | 87 | 1015.7 |
| 20260505005537 | 15 | 45 | 1.6 | 4.8 | 0.15 | 0.15 | 0.15 | 86 | 1015.8 |
| 20260505004516 | 15 | 135 | 1.6 | 6.4 | 0.08 | 0.08 | 0.08 | 83 | 1015.9 |
| 20260505003536 | 15 | 0.0 | 0.0 | 0.03 | 0.03 | 0.03 | 79 | 1016.1 | |
| 20260505002516 | 16 | 135 | 3.2 | 9.7 | 0.00 | 0.00 | 0.00 | 77 | 1016.1 |
| 20260505001516 | 16 | 0.0 | 1.6 | 0.00 | 0.00 | 0.00 | 73 | 1016.2 | |
| 20260505000516 | 16 | 0.0 | 3.2 | 0.00 | 0.00 | 0.00 | 73 | 1016.2 | |
| 20260504235516 | 16 | 0.0 | 3.2 | 0.00 | 0.00 | 0.00 | 71 | 1016.3 | |
| 20260504234516 | 16 | 293 | 1.6 | 4.8 | 0.00 | 0.00 | 0.00 | 71 | 1016.4 |
| 20260504233516 | 16 | 23 | 3.2 | 6.4 | 0.00 | 0.00 | 0.00 | 72 | 1016.5 |
| 20260504232516 | 16 | 293 | 4.8 | 8.0 | 0.00 | 0.00 | 0.00 | 71 | 1016.6 |
| 20260504231516 | 16 | 293 | 3.2 | 6.4 | 0.00 | 0.00 | 0.00 | 72 | 1016.7 |
| 20260504230516 | 16 | 23 | 3.2 | 8.0 | 0.00 | 0.00 | 0.00 | 71 | 1016.8 |
| 20260504225516 | 16 | 293 | 1.6 | 4.8 | 0.00 | 0.00 | 0.00 | 72 | 1017.0 |
| 20260504224516 | 16 | 23 | 1.6 | 8.0 | 0.00 | 0.00 | 0.00 | 71 | 1017.2 |
| 20260504223517 | 16 | 293 | 3.2 | 8.0 | 0.00 | 0.00 | 0.00 | 71 | 1017.3 |
| 20260504222516 | 16 | 293 | 3.2 | 9.7 | 0.00 | 0.00 | 0.00 | 71 | 1017.4 |
| 20260504221516 | 16 | 293 | 4.8 | 11.3 | 0.00 | 0.00 | 0.00 | 72 | 1017.4 |
| 20260504220516 | 16 | 293 | 4.8 | 9.7 | 0.00 | 0.00 | 0.00 | 72 | 1017.5 |
| 20260504215516 | 16 | 293 | 4.8 | 8.0 | 0.00 | 0.00 | 0.00 | 73 | 1017.5 |
| 20260504214516 | 16 | 293 | 4.8 | 9.7 | 0.00 | 0.00 | 0.00 | 73 | 1017.7 |
| 20260504213517 | 16 | 293 | 3.2 | 8.0 | 0.00 | 0.00 | 0.00 | 74 | 1017.7 |
| 20260504212516 | 16 | 293 | 4.8 | 11.3 | 0.00 | 0.00 | 0.00 | 74 | 1017.7 |
| 20260504211536 | 16 | 293 | 3.2 | 6.4 | 0.00 | 0.00 | 0.00 | 74 | 1017.8 |
| 20260504210517 | 16 | 293 | 1.6 | 6.4 | 0.00 | 0.00 | 0.00 | 75 | 1017.8 |
| 20260504205516 | 16 | 23 | 3.2 | 8.0 | 0.00 | 0.00 | 0.00 | 74 | 1017.8 |
| 20260504204516 | 16 | 293 | 3.2 | 8.0 | 0.00 | 0.00 | 0.00 | 74 | 1017.7 |
| 20260504203517 | 16 | 0 | 1.6 | 6.4 | 0.00 | 0.00 | 0.00 | 74 | 1017.8 |
| 20260504202516 | 16 | 0.0 | 3.2 | 0.00 | 0.00 | 0.00 | 75 | 1017.8 | |
| 20260504201516 | 16 | 0.0 | 3.2 | 0.00 | 0.00 | 0.00 | 75 | 1017.8 | |
| 20260504200516 | 16 | 293 | 1.6 | 4.8 | 0.00 | 0.00 | 0.00 | 76 | 1017.8 |
| 20260504195516 | 16 | 293 | 1.6 | 3.2 | 0.00 | 0.00 | 0.00 | 76 | 1017.8 |
| 20260504194517 | 16 | 293 | 3.2 | 6.4 | 0.00 | 0.00 | 0.00 | 76 | 1017.7 |
| 20260504193516 | 16 | 0.0 | 3.2 | 0.00 | 0.00 | 0.00 | 76 | 1017.6 | |
| 20260504192516 | 16 | 0.0 | 0.0 | 0.00 | 0.00 | 0.00 | 75 | 1017.6 | |
| 20260504191516 | 17 | 0.0 | 0.0 | 0.00 | 0.00 | 0.00 | 73 | 1017.4 | |
| 20260504190516 | 17 | 0.0 | 1.6 | 0.00 | 0.00 | 0.00 | 71 | 1017.3 | |
| 20260504185517 | 18 | 293 | 1.6 | 6.4 | 0.00 | 0.00 | 0.00 | 70 | 1017.3 |
| 20260504184516 | 18 | 0.0 | 6.4 | 0.00 | 0.00 | 0.00 | 71 | 1017.1 | |
| 20260504183516 | 18 | 0.0 | 4.8 | 0.00 | 0.00 | 0.00 | 70 | 1017.1 | |
| 20260504182517 | 18 | 0.0 | 3.2 | 0.00 | 0.00 | 0.00 | 70 | 1017.2 | |
| 20260504181517 | 18 | 0.0 | 4.8 | 0.00 | 0.00 | 0.00 | 70 | 1017.2 | |
| 20260504180516 | 18 | 270 | 1.6 | 8.0 | 0.00 | 0.00 | 0.00 | 69 | 1017.1 |
| 20260504175516 | 18 | 270 | 1.6 | 8.0 | 0.00 | 0.00 | 0.00 | 69 | 1017.1 |
| 20260504174516 | 19 | 270 | 1.6 | 8.0 | 0.00 | 0.00 | 0.00 | 69 | 1017.1 |
| 20260504173516 | 19 | 293 | 3.2 | 11.3 | 0.00 | 0.00 | 0.00 | 68 | 1017.1 |
| 20260504172557 | 19 | 270 | 1.6 | 9.7 | 0.00 | 0.00 | 0.00 | 68 | 1017.1 |
| 20260504171517 | 20 | 293 | 1.6 | 6.4 | 0.00 | 0.00 | 0.00 | 68 | 1017.0 |
| 20260504170516 | 20 | 270 | 3.2 | 8.0 | 0.00 | 0.00 | 0.00 | 67 | 1017.0 |
| 20260504150516 | 22 | 180 | 1.6 | 8.0 | 0.00 | 0.00 | 0.00 | 54 | 1017.0 |
| 20260504140536 | 22 | 180 | 3.2 | 8.0 | 0.00 | 0.00 | 0.00 | 48 | 1017.3 |
| 20260504130537 | 23 | 180 | 1.6 | 6.4 | 0.00 | 0.00 | 0.00 | 43 | 1017.9 |
| 20260504110516 | 22 | 135 | 4.8 | 12.9 | 0.00 | 0.00 | 0.00 | 38 | 1018.7 |
| 20260504100516 | 20 | 158 | 3.2 | 11.3 | 0.00 | 0.00 | 0.00 | 47 | 1019.3 |
| 20260504081016 | 17 | 135 | 3.2 | 8.0 | 0.00 | 0.00 | 0.00 | 64 | 1019.3 |
| 20260504050017 | 12 | 0.0 | 1.6 | 0.00 | 0.00 | 0.00 | 72 | 1019.3 |